Location: Lac Lasalle
(46.0398°N, 74.1576°W)
Time: 07:51:33
(UTC-05:00)

AO-73 - Pass Details

Date: 12 December 2019
Orbit: 581 x 664 km, 97.6° (Epoch: 17 January)

Event Time Altitude Azimuth Distance (km) Brightness Sun altitude
Rises 17:43:52 0° 177° (S) 2,970 ? -15.3°
Reaches altitude 10° 17:46:08 10° 181° (S) 2,055 ? -15.7°
Maximum altitude 17:50:33 56° 260° (W) 769 ? -16.4°
Drops below altitude 10° 17:54:54 10° 339° (NNW) 2,027 ? -17.2°
Sets 17:57:08 0° 344° (NNW) 2,926 ? -17.5°
